sat.trackr.live / text

‹ back to catalog

STARLINK-35267

NORAD 65592 · 2025-207A

PAYLOAD ACTIVE UNKNOWN

§ Identity

Operator
Country
US
Launch date
2025-09-13
Launch site
AFWTR
Launch vehicle
Mass (kg)
RCS (m²)

Purposes: comms

External: N2YO · Heavens-Above · Gunter

§ Orbital elements

Epoch: 2026-09-20T21:53:24.684000Z

Period
93.91 min
Inclination
97.2833°
Eccentricity
0.0001245
Mean motion
15.33464271 rev/d
Perigee alt
464.6 km
Apogee alt
466.3 km
Semi-major
6,843.6 km
B*
3.8363e-4
RAAN
326.4695°
Arg perigee
94.4743°
Mean anomaly
265.6642°
Rev number
5,764

§ Raw data

STARLINK-352671 65592U 25207A   26263.91209125  .00012338  00000+0  38363-3 0  99932 65592  97.2833 326.4695 0001245  94.4743 265.6642 15.33464271 57648

JSON: /api/v1/satellites/65592 · /tle

For live sub-satellite position, see the globe view (requires WebGL).

§ Visibility from observer

Set your observer location to see the next 7 days of passes ≥ 10°. The values pass through the URL so the page stays shareable.

No JS? Fill the form by hand. The geolocation button needs JavaScript.